Time,TemperatureF,DewpointF,PressureIn,WindDirection,WindDirectionDegrees,WindSpeedMPH,WindSpeedGustMPH,Humidity,HourlyPrecipIn,Conditions,Clouds,dailyrainin,SoftwareType,DateUTC
2013-01-06 16:03:00,79.0,73.0,30.01,ESE,123,6.0,16.0,81,0.00,,,0.00,,2013-01-06 21:03:00,
2013-01-06 16:12:00,79.0,73.0,30.01,ESE,123,6.0,16.0,81,0.00,,,0.00,,2013-01-06 21:12:00,
2013-01-06 16:22:00,79.0,73.0,30.02,SSE,150,4.0,15.0,82,0.00,,,0.00,,2013-01-06 21:22:00,
2013-01-06 16:33:00,79.0,73.0,30.02,SSE,163,5.0,15.0,81,0.00,,,0.00,,2013-01-06 21:33:00,
2013-01-06 16:43:00,79.0,73.0,30.02,SSE,163,5.0,15.0,81,0.00,,,0.00,,2013-01-06 21:43:00,
2013-01-06 16:53:00,79.0,73.0,30.01,South,173,1.0,12.0,81,0.00,,,0.00,,2013-01-06 21:53:00,
2013-01-06 17:02:00,79.0,73.0,30.02,SSE,155,1.0,13.0,81,0.00,,,0.00,,2013-01-06 22:02:00,
2013-01-06 17:12:00,79.0,73.0,30.02,SSE,155,1.0,13.0,81,0.00,,,0.00,,2013-01-06 22:12:00,
2013-01-06 17:22:00,79.0,73.0,30.02,ESE,113,1.0,9.0,83,0.00,,,0.00,,2013-01-06 22:22:00,
2013-01-06 17:33:00,78.0,72.0,30.02,SE,140,2.0,12.0,83,0.00,,,0.00,,2013-01-06 22:33:00,
2013-01-06 17:43:00,78.0,72.0,30.02,SE,140,2.0,12.0,83,0.00,,,0.00,,2013-01-06 22:43:00,
2013-01-06 17:53:00,78.0,73.0,30.02,SE,129,0.0,9.0,84,0.00,,,0.00,,2013-01-06 22:53:00,
2013-01-06 18:02:00,77.0,72.0,30.02,ESE,121,2.0,11.0,84,0.00,,,0.00,,2013-01-06 23:02:00,
2013-01-06 18:12:00,77.0,72.0,30.02,ESE,121,2.0,11.0,84,0.00,,,0.00,,2013-01-06 23:12:00,
2013-01-06 18:22:00,77.0,72.0,30.03,SE,143,3.0,12.0,85,0.00,,,0.00,,2013-01-06 23:22:00,
2013-01-06 18:33:00,77.0,72.0,30.03,SE,141,1.0,11.0,85,0.00,,,0.00,,2013-01-06 23:33:00,
2013-01-06 18:43:00,77.0,72.0,30.03,SE,141,1.0,11.0,85,0.00,,,0.00,,2013-01-06 23:43:00,
2013-01-06 18:53:00,77.0,72.0,30.03,SSE,154,5.0,12.0,84,0.00,,,0.00,,2013-01-06 23:53:00,
2013-01-06 19:02:00,77.0,72.0,30.04,SE,138,0.0,11.0,84,0.00,,,0.00,,2013-01-07 00:02:00,
2013-01-06 19:12:00,77.0,72.0,30.04,SE,138,0.0,11.0,84,0.00,,,0.00,,2013-01-07 00:12:00,
2013-01-06 19:23:00,77.0,72.0,30.04,SE,136,0.0,9.0,84,0.00,,,0.00,,2013-01-07 00:23:00,
2013-01-06 19:33:00,77.0,72.0,30.04,SE,137,0.0,9.0,85,0.00,,,0.00,,2013-01-07 00:33:00,
2013-01-06 19:43:00,77.0,72.0,30.04,SE,137,0.0,9.0,85,0.00,,,0.00,,2013-01-07 00:43:00,
2013-01-06 19:53:00,77.0,72.0,30.05,SE,133,2.0,11.0,84,0.00,,,0.00,,2013-01-07 00:53:00,
2013-01-06 20:02:00,77.0,72.0,30.05,SE,135,0.0,8.0,84,0.00,,,0.00,,2013-01-07 01:02:00,
2013-01-06 20:12:00,77.0,72.0,30.05,SE,135,0.0,8.0,84,0.00,,,0.00,,2013-01-07 01:12:00,
2013-01-06 20:23:00,77.0,72.0,30.06,SE,129,0.0,7.0,84,0.00,,,0.00,,2013-01-07 01:23:00,
2013-01-06 20:32:00,77.0,72.0,30.06,SE,128,0.0,0.0,84,0.00,,,0.00,,2013-01-07 01:32:00,
2013-01-06 20:42:00,77.0,72.0,30.06,SE,128,0.0,0.0,84,0.00,,,0.00,,2013-01-07 01:42:00,
2013-01-06 20:53:00,77.0,72.0,30.06,SE,126,0.0,0.0,85,0.00,,,0.00,,2013-01-07 01:53:00,
2013-01-06 21:02:00,77.0,72.0,30.06,SE,126,0.0,0.0,85,0.00,,,0.00,,2013-01-07 02:02:00,
2013-01-06 21:12:00,77.0,72.0,30.06,SE,126,0.0,0.0,85,0.00,,,0.00,,2013-01-07 02:12:00,
2013-01-06 21:23:00,77.0,72.0,30.07,ESE,119,0.0,6.0,85,0.00,,,0.00,,2013-01-07 02:23:00,
2013-01-06 21:32:00,77.0,72.0,30.07,ESE,115,2.0,6.0,85,0.00,,,0.00,,2013-01-07 02:32:00,
2013-01-06 21:42:00,77.0,72.0,30.07,ESE,115,2.0,6.0,85,0.00,,,0.00,,2013-01-07 02:42:00,
2013-01-06 21:53:00,77.0,72.0,30.07,SE,132,0.0,8.0,86,0.00,,,0.00,,2013-01-07 02:53:00,
2013-01-06 22:02:00,77.0,72.0,30.07,ESE,103,0.0,9.0,86,0.00,,,0.00,,2013-01-07 03:02:00,
2013-01-06 22:12:00,77.0,72.0,30.07,ESE,103,0.0,9.0,86,0.00,,,0.00,,2013-01-07 03:12:00,
2013-01-06 22:22:00,77.0,72.0,30.06,ESE,104,3.0,13.0,86,0.00,,,0.00,,2013-01-07 03:22:00,
2013-01-06 22:33:00,77.0,72.0,30.06,ESE,108,3.0,12.0,86,0.00,,,0.00,,2013-01-07 03:33:00,
2013-01-06 22:43:00,77.0,72.0,30.06,ESE,108,3.0,12.0,86,0.00,,,0.00,,2013-01-07 03:43:00,
2013-01-06 22:53:00,77.0,72.0,30.06,ESE,117,0.0,11.0,86,0.00,,,0.00,,2013-01-07 03:53:00,
2013-01-06 23:02:00,77.0,72.0,30.06,ESE,115,0.0,8.0,86,0.00,,,0.00,,2013-01-07 04:02:00,
2013-01-06 23:12:00,77.0,72.0,30.06,ESE,115,0.0,8.0,86,0.00,,,0.00,,2013-01-07 04:12:00,
2013-01-06 23:22:00,77.0,72.0,30.07,ESE,119,0.0,7.0,85,0.00,,,0.00,,2013-01-07 04:22:00,
2013-01-06 23:32:00,77.0,72.0,30.07,ESE,117,0.0,0.0,85,0.00,,,0.00,,2013-01-07 04:32:00,
2013-01-06 23:42:00,77.0,72.0,30.07,ESE,117,0.0,0.0,85,0.00,,,0.00,,2013-01-07 04:42:00,
2013-01-06 23:52:00,76.0,71.0,30.07,ESE,111,0.0,0.0,85,0.00,,,0.00,,2013-01-07 04:52:00,